+ View the NASA Portal
+ Center for Near-Earth Object Studies
IMPORTANT:
The SSD Announcement email list is now available. Major changes are coming in the near future, including possible hostname and/or URL changes. To be notified of such changes, subscribe to this email list.
Please visit
this page
for more details.
Don't show this message again
JPL Small-Body Database Browser
Search:
[
help
]
212654 (2006 UM125)
Classification:
Main-belt Asteroid
SPK-ID:
2212654
[
Ephemeris
|
Orbit Diagram
|
Orbital Elements
|
Mission Design
|
Physical Parameters
|
Discovery Circumstances
|
Close-Approach Data
]
[ show orbit diagram ]
Orbital Elements at Epoch 2458600.5 (2019-Apr-27.0) TDB
Reference:
JPL 9
(heliocentric ecliptic J2000)
Element
Value
Uncertainty (1-sigma)
Units
e
.04853754113992998
6.4986e-08
a
3.084539017397407
3.8085e-08
au
q
2.934823077942761
2.0675e-07
au
i
10.07615850919996
8.2969e-06
deg
node
17.82228954532693
3.9134e-05
deg
peri
279.1183324338153
9.7981e-05
deg
M
203.547399139299
8.7969e-05
deg
t
p
2459460.432010388991
(2021-Sep-02.93201039)
0.00048458
TDB
period
1978.717656574275
5.42
3.6647e-05
1.003e-07
d
yr
n
.1819360123481502
3.3695e-09
deg/d
Q
3.234254956852053
3.9933e-08
au
Orbit Determination Parameters
# obs. used (total)
162
data-arc span
8504 days (23.28 yr)
first obs. used
1995-10-19
last obs. used
2019-01-30
planetary ephem.
DE431
SB-pert. ephem.
SB431-N16
condition code
0
norm. resid. RMS
.5457
source
ORB
producer
Otto Matic
solution date
2019-Jul-14 08:45:25
Additional Information
Earth MOID
= 1.94146 au
Jupiter MOID
= 1.89389 au
T_jup
= 3.201
[ show covariance matrix ]
[
Ephemeris
|
Orbit Diagram
|
Orbital Elements
|
Mission Design
|
Physical Parameters
|
Discovery Circumstances
|
Close-Approach Data
]
Physical Parameter Table
Parameter
Symbol
Value
Units
Sigma
Reference
Notes
absolute magnitude
H
16.3
n/a
MPO433390
212654 (2006 UM125)
Discovered 2006-Oct-19 by Spacewatch at Kitt Peak
Reference:
20090409/Numbers.arc
Last Updated:
2009-04-10
[ show close-approach data ]
Alternate Designations
2006 UM125
= 1995 UN68
[
Ephemeris
|
Orbit Diagram
|
Orbital Elements
|
Mission Design
|
Physical Parameters
|
Discovery Circumstances
|
Close-Approach Data
]
2019-Dec-15 21:39 UT
(server date/time)
Site Manager:
Ryan S. Park
Webmaster
:
Alan B. Chamberlin